Station Historical Data
Daily Summary for June 6, 2012 Units:  English    Metric   Both
« Previous Day
Next Day »
Daily Weekly Monthly Yearly Custom
  High: Low: Average:
Temperature: 76.4 °F 57.8 °F 68 °F
Dew Point: 59.2 °F 53.0 °F 55.7 °F
Humidity: 84% 46% 66%
Wind Speed: 12.0mph 0.0mph 3.4mph
Wind Gust: 15.0mph - -
Wind- - SE
Pressure: 29.95 in 29.81 in -
Precipitation: 0.00 in    
Historical Graphs
 
 
Tabular Data for June 6, 2012
Time Temperature Dew Point Pressure Wind Wind Speed Wind Gust Humidity Rainfall Rate (Hourly) Conditions
00:00 65.1 °F 56.2 °F 29.82 in NNE 2.0 mph 2.0 mph 73% 0.00 in
00:01 65.0 °F 56.2 °F 29.82 in NNE 2.0 mph 3.0 mph 73% 0.00 in
00:06 64.8 °F 56.0 °F 29.82 in NE 2.0 mph 3.0 mph 73% 0.00 in
00:11 64.7 °F 55.9 °F 29.82 in North 3.0 mph 3.0 mph 73% 0.00 in
00:16 64.6 °F 55.8 °F 29.82 in North 2.0 mph 3.0 mph 73% 0.00 in
00:21 64.6 °F 55.8 °F 29.82 in NNE 2.0 mph 5.0 mph 73% 0.00 in
00:26 64.5 °F 55.7 °F 29.82 in NNW 3.0 mph 4.0 mph 73% 0.00 in
00:31 64.5 °F 55.7 °F 29.82 in NNE 2.0 mph 4.0 mph 73% 0.00 in
00:36 64.5 °F 55.3 °F 29.82 in NNE 3.0 mph 4.0 mph 72% 0.00 in
00:41 64.4 °F 55.2 °F 29.82 in NNE 4.0 mph 5.0 mph 72% 0.00 in
00:46 64.3 °F 55.1 °F 29.82 in NE 3.0 mph 4.0 mph 72% 0.00 in
00:51 64.2 °F 55.0 °F 29.82 in NE 2.0 mph 2.0 mph 72% 0.00 in
00:56 64.1 °F 54.9 °F 29.82 in NE 2.0 mph 4.0 mph 72% 0.00 in
01:01 64.1 °F 54.9 °F 29.82 in NE 2.0 mph 5.0 mph 72% 0.00 in
01:06 63.9 °F 54.7 °F 29.82 in NE 2.0 mph 3.0 mph 72% 0.00 in
01:11 63.9 °F 54.7 °F 29.82 in NE 1.0 mph 3.0 mph 72% 0.00 in
01:16 63.8 °F 54.6 °F 29.82 in North 2.0 mph 4.0 mph 72% 0.00 in
01:21 63.7 °F 54.5 °F 29.82 in NE 1.0 mph 2.0 mph 72% 0.00 in
01:26 63.4 °F 54.6 °F 29.82 in NNE 4.0 mph 4.0 mph 73% 0.00 in
01:31 63.3 °F 54.5 °F 29.81 in NE 1.0 mph 2.0 mph 73% 0.00 in
01:36 63.1 °F 54.3 °F 29.81 in NE 1.0 mph 3.0 mph 73% 0.00 in
01:42 62.9 °F 54.5 °F 29.81 in NNE 1.0 mph 1.0 mph 74% 0.00 in
01:47 62.8 °F 54.4 °F 29.81 in North 2.0 mph 3.0 mph 74% 0.00 in
01:52 62.6 °F 54.6 °F 29.81 in Calm   3.0 mph 75% 0.00 in
01:57 62.4 °F 54.4 °F 29.81 in NE 1.0 mph 3.0 mph 75% 0.00 in
02:02 62.3 °F 54.3 °F 29.81 in North 3.0 mph 5.0 mph 75% 0.00 in
02:07 62.4 °F 54.4 °F 29.81 in NNE 4.0 mph 5.0 mph 75% 0.00 in
02:13 62.3 °F 54.3 °F 29.81 in NNE 1.0 mph 2.0 mph 75% 0.00 in
02:18 62.1 °F 54.1 °F 29.81 in Calm   2.0 mph 75% 0.00 in
02:23 62.0 °F 54.4 °F 29.81 in NNE 1.0 mph 2.0 mph 76% 0.00 in
02:28 61.8 °F 54.2 °F 29.81 in Calm   1.0 mph 76% 0.00 in
02:33 61.5 °F 53.9 °F 29.81 in NNE 2.0 mph 2.0 mph 76% 0.00 in
02:38 61.4 °F 54.1 °F 29.81 in Calm   2.0 mph 77% 0.00 in
02:43 61.3 °F 54.0 °F 29.81 in NNE 1.0 mph 2.0 mph 77% 0.00 in
02:48 61.1 °F 54.2 °F 29.81 in North 2.0 mph 2.0 mph 78% 0.00 in
02:53 61.0 °F 54.1 °F 29.81 in NNE 1.0 mph 2.0 mph 78% 0.00 in
02:58 60.8 °F 54.3 °F 29.81 in North 2.0 mph 2.0 mph 79% 0.00 in
03:03 60.7 °F 54.2 °F 29.81 in North 1.0 mph 3.0 mph 79% 0.00 in
03:08 60.6 °F 53.7 °F 29.81 in NE 1.0 mph 2.0 mph 78% 0.00 in
03:13 60.7 °F 53.8 °F 29.81 in NE 2.0 mph 3.0 mph 78% 0.00 in
03:18 60.8 °F 53.9 °F 29.81 in North 1.0 mph 4.0 mph 78% 0.00 in
03:23 60.7 °F 53.8 °F 29.81 in NE 1.0 mph 2.0 mph 78% 0.00 in
03:28 60.6 °F 53.7 °F 29.81 in NNW 1.0 mph 3.0 mph 78% 0.00 in
03:33 60.4 °F 53.9 °F 29.81 in North 3.0 mph 4.0 mph 79% 0.00 in
03:38 60.2 °F 53.7 °F 29.81 in NNW 3.0 mph 4.0 mph 79% 0.00 in
03:43 59.9 °F 53.7 °F 29.81 in NNW 1.0 mph 4.0 mph 80% 0.00 in
03:48 59.9 °F 53.7 °F 29.81 in North 2.0 mph 3.0 mph 80% 0.00 in
03:53 60.0 °F 53.8 °F 29.81 in NNE 3.0 mph 4.0 mph 80% 0.00 in
03:59 60.1 °F 53.6 °F 29.81 in NE 2.0 mph 3.0 mph 79% 0.00 in
04:04 60.4 °F 53.9 °F 29.81 in North 2.0 mph 6.0 mph 79% 0.00 in
04:09 60.5 °F 53.6 °F 29.81 in NNW 3.0 mph 4.0 mph 78% 0.00 in
04:14 60.4 °F 53.9 °F 29.81 in North 2.0 mph 4.0 mph 79% 0.00 in
04:19 60.4 °F 53.9 °F 29.81 in North 1.0 mph 4.0 mph 79% 0.00 in
04:24 60.4 °F 53.9 °F 29.81 in North 1.0 mph 3.0 mph 79% 0.00 in
04:29 60.3 °F 53.8 °F 29.81 in NNW 3.0 mph 4.0 mph 79% 0.00 in
04:34 60.2 °F 53.7 °F 29.81 in NNE 1.0 mph 5.0 mph 79% 0.00 in
04:39 60.1 °F 53.6 °F 29.81 in NNE 1.0 mph 3.0 mph 79% 0.00 in
04:44 60.0 °F 53.5 °F 29.82 in NNE 1.0 mph 2.0 mph 79% 0.00 in
04:49 59.9 °F 53.4 °F 29.82 in North 1.0 mph 4.0 mph 79% 0.00 in
04:54 59.8 °F 53.3 °F 29.82 in NNE 1.0 mph 3.0 mph 79% 0.00 in
04:59 59.6 °F 53.4 °F 29.82 in NE 1.0 mph 2.0 mph 80% 0.00 in
05:04 59.4 °F 53.2 °F 29.82 in NNE 1.0 mph 2.0 mph 80% 0.00 in
05:09 59.4 °F 53.2 °F 29.82 in NNE 1.0 mph 2.0 mph 80% 0.00 in
05:14 59.3 °F 53.1 °F 29.82 in NNE 1.0 mph 3.0 mph 80% 0.00 in
05:19 59.2 °F 53.4 °F 29.82 in North 2.0 mph 3.0 mph 81% 0.00 in
05:24 59.2 °F 53.4 °F 29.82 in North 2.0 mph 3.0 mph 81% 0.00 in
05:29 59.1 °F 53.3 °F 29.82 in NNW 1.0 mph 2.0 mph 81% 0.00 in
05:35 59.1 °F 53.3 °F 29.82 in NNE 2.0 mph 3.0 mph 81% 0.00 in
05:40 59.0 °F 53.2 °F 29.83 in Calm   2.0 mph 81% 0.00 in
05:45 58.8 °F 53.3 °F 29.82 in North 1.0 mph 3.0 mph 82% 0.00 in
05:50 58.7 °F 53.2 °F 29.83 in NNE 2.0 mph 3.0 mph 82% 0.00 in
05:55 58.6 °F 53.1 °F 29.83 in NE 2.0 mph 3.0 mph 82% 0.00 in
06:00 58.4 °F 53.3 °F 29.83 in NE 2.0 mph 3.0 mph 83% 0.00 in
06:05 58.3 °F 53.2 °F 29.83 in NNE 1.0 mph 3.0 mph 83% 0.00 in
06:10 58.1 °F 53.0 °F 29.83 in NNE 2.0 mph 3.0 mph 83% 0.00 in
06:15 58.1 °F 53.3 °F 29.83 in NNE 2.0 mph 5.0 mph 84% 0.00 in
06:20 58.1 °F 53.3 °F 29.83 in North 3.0 mph 3.0 mph 84% 0.00 in
06:25 58.0 °F 53.2 °F 29.83 in ENE 4.0 mph 4.0 mph 84% 0.00 in
06:30 58.0 °F 53.2 °F 29.83 in NNE 2.0 mph 3.0 mph 84% 0.00 in
06:35 57.9 °F 53.1 °F 29.83 in NNE 2.0 mph 4.0 mph 84% 0.00 in
06:40 57.9 °F 53.1 °F 29.83 in NNE 1.0 mph 6.0 mph 84% 0.00 in
06:46 57.8 °F 53.0 °F 29.83 in NE 2.0 mph 3.0 mph 84% 0.00 in
06:51 57.9 °F 53.1 °F 29.83 in NE 3.0 mph 3.0 mph 84% 0.00 in
06:56 57.9 °F 53.1 °F 29.83 in NNE 2.0 mph 3.0 mph 84% 0.00 in
07:01 58.0 °F 53.2 °F 29.84 in NNE 2.0 mph 4.0 mph 84% 0.00 in
07:06 58.6 °F 53.8 °F 29.84 in NE 2.0 mph 3.0 mph 84% 0.00 in
07:11 59.2 °F 53.7 °F 29.84 in NE 2.0 mph 3.0 mph 82% 0.00 in
07:16 59.6 °F 53.8 °F 29.84 in NNE 1.0 mph 3.0 mph 81% 0.00 in
07:21 60.2 °F 54.0 °F 29.84 in NNE 2.0 mph 2.0 mph 80% 0.00 in
07:26 60.6 °F 54.4 °F 29.84 in Calm   2.0 mph 80% 0.00 in
07:31 61.1 °F 54.9 °F 29.84 in NE 2.0 mph 2.0 mph 80% 0.00 in
07:36 61.6 °F 55.0 °F 29.85 in Calm   2.0 mph 79% 0.00 in
07:41 61.8 °F 54.9 °F 29.85 in NNE 3.0 mph 3.0 mph 78% 0.00 in
07:46 62.0 °F 55.1 °F 29.86 in NNE 1.0 mph 3.0 mph 78% 0.00 in
07:51 62.2 °F 55.3 °F 29.85 in North 2.0 mph 3.0 mph 78% 0.00 in
07:56 62.5 °F 55.6 °F 29.86 in NE 3.0 mph 3.0 mph 78% 0.00 in
08:01 62.7 °F 55.8 °F 29.86 in NNE 1.0 mph 4.0 mph 78% 0.00 in
08:06 62.9 °F 55.9 °F 29.86 in NNE 2.0 mph 5.0 mph 78% 0.00 in
08:11 63.0 °F 55.7 °F 29.86 in NNE 3.0 mph 7.0 mph 77% 0.00 in
08:16 63.1 °F 56.1 °F 29.87 in NNE 5.0 mph 6.0 mph 78% 0.00 in
08:21 63.2 °F 56.2 °F 29.87 in North 5.0 mph 9.0 mph 78% 0.00 in
08:26 63.3 °F 56.3 °F 29.86 in NNW 2.0 mph 9.0 mph 78% 0.00 in
08:31 63.7 °F 56.4 °F 29.87 in NNE 3.0 mph 8.0 mph 77% 0.00 in
08:36 64.1 °F 56.8 °F 29.87 in NNW 3.0 mph 6.0 mph 77% 0.00 in
08:41 64.3 °F 56.6 °F 29.87 in NE 4.0 mph 7.0 mph 76% 0.00 in
08:47 64.4 °F 56.7 °F 29.87 in NE 8.0 mph 8.0 mph 76% 0.00 in
08:52 64.7 °F 57.0 °F 29.87 in NNE 6.0 mph 8.0 mph 76% 0.00 in
08:57 65.2 °F 58.2 °F 29.87 in NNE 5.0 mph 6.0 mph 78% 0.00 in
09:02 65.6 °F 57.5 °F 29.87 in NE 2.0 mph 12.0 mph 75% 0.00 in
09:07 66.0 °F 57.9 °F 29.88 in ENE 6.0 mph 8.0 mph 75% 0.00 in
09:12 66.3 °F 57.4 °F 29.88 in NNE 5.0 mph 8.0 mph 73% 0.00 in
09:17 66.5 °F 57.6 °F 29.88 in NW 4.0 mph 7.0 mph 73% 0.00 in
09:23 67.2 °F 57.9 °F 29.88 in NW 2.0 mph 7.0 mph 72% 0.00 in
09:28 67.5 °F 58.2 °F 29.88 in North 5.0 mph 7.0 mph 72% 0.00 in
09:33 68.0 °F 57.9 °F 29.88 in NNE 7.0 mph 9.0 mph 70% 0.00 in
09:38 68.2 °F 57.7 °F 29.88 in East 6.0 mph 9.0 mph 69% 0.00 in
09:43 68.4 °F 57.4 °F 29.88 in NNE 9.0 mph 9.0 mph 68% 0.00 in
09:48 68.7 °F 58.1 °F 29.88 in North 5.0 mph 7.0 mph 69% 0.00 in
09:53 69.1 °F 58.5 °F 29.88 in North 4.0 mph 8.0 mph 69% 0.00 in
09:58 69.3 °F 58.3 °F 29.89 in NE 4.0 mph 6.0 mph 68% 0.00 in
10:03 69.8 °F 59.2 °F 29.89 in NNW 3.0 mph 7.0 mph 69% 0.00 in
10:08 70.2 °F 57.9 °F 29.89 in NNE 6.0 mph 7.0 mph 65% 0.00 in
10:13 70.1 °F 56.9 °F 29.89 in NNE 4.0 mph 9.0 mph 63% 0.00 in
10:18 70.4 °F 58.5 °F 29.89 in North 5.0 mph 8.0 mph 66% 0.00 in
10:23 70.6 °F 58.7 °F 29.89 in NNE 3.0 mph 9.0 mph 66% 0.00 in
10:28 70.6 °F 57.4 °F 29.89 in NW 6.0 mph 10.0 mph 63% 0.00 in
10:33 70.7 °F 57.9 °F 29.89 in ENE 4.0 mph 9.0 mph 64% 0.00 in
10:38 71.0 °F 57.3 °F 29.89 in NNE 6.0 mph 9.0 mph 62% 0.00 in
10:43 71.3 °F 57.6 °F 29.90 in NE 9.0 mph 11.0 mph 62% 0.00 in
10:48 71.3 °F 57.2 °F 29.89 in NNE 7.0 mph 10.0 mph 61% 0.00 in
10:53 71.5 °F 57.8 °F 29.90 in NNW 5.0 mph 9.0 mph 62% 0.00 in
10:58 71.8 °F 58.1 °F 29.90 in NNW 8.0 mph 9.0 mph 62% 0.00 in
11:03 71.8 °F 57.2 °F 29.89 in North 6.0 mph 11.0 mph 60% 0.00 in
11:08 72.1 °F 57.5 °F 29.89 in North 6.0 mph 12.0 mph 60% 0.00 in
11:13 72.2 °F 57.1 °F 29.89 in NNE 7.0 mph 9.0 mph 59% 0.00 in
11:18 72.7 °F 58.5 °F 29.89 in NNW 9.0 mph 9.0 mph 61% 0.00 in
11:23 72.8 °F 57.2 °F 29.89 in NNE 3.0 mph 12.0 mph 58% 0.00 in
11:28 72.7 °F 57.1 °F 29.89 in NE 6.0 mph 10.0 mph 58% 0.00 in
11:33 73.0 °F 56.9 °F 29.89 in North 7.0 mph 10.0 mph 57% 0.00 in
11:38 72.8 °F 58.1 °F 29.89 in North 7.0 mph 10.0 mph 60% 0.00 in
11:43 73.2 °F 57.1 °F 29.89 in NW 9.0 mph 10.0 mph 57% 0.00 in
11:48 73.2 °F 56.6 °F 29.89 in North 11.0 mph 11.0 mph 56% 0.00 in
11:53 73.3 °F 57.2 °F 29.89 in NW 8.0 mph 11.0 mph 57% 0.00 in
11:59 73.4 °F 55.2 °F 29.89 in NW 4.0 mph 14.0 mph 53% 0.00 in
12:04 73.6 °F 56.5 °F 29.89 in North 9.0 mph 9.0 mph 55% 0.00 in
12:09 73.5 °F 54.8 °F 29.89 in NNE 5.0 mph 11.0 mph 52% 0.00 in
12:14 73.7 °F 56.0 °F 29.89 in NNE 5.0 mph 10.0 mph 54% 0.00 in
12:19 74.0 °F 55.8 °F 29.89 in NNE 5.0 mph 10.0 mph 53% 0.00 in
12:24 74.1 °F 56.9 °F 29.89 in East 7.0 mph 10.0 mph 55% 0.00 in
12:29 74.1 °F 56.9 °F 29.89 in NNW 8.0 mph 9.0 mph 55% 0.00 in
12:30 74.2 °F 55.5 °F 29.89 in North 8.0 mph 12.0 mph 52% 0.00 in
12:31 74.2 °F 56.5 °F 29.89 in NNW 11.0 mph 12.0 mph 54% 0.00 in
12:36 74.0 °F 55.3 °F 29.89 in North 4.0 mph 12.0 mph 52% 0.00 in
12:41 74.2 °F 54.4 °F 29.89 in North 12.0 mph 12.0 mph 50% 0.00 in
12:46 74.0 °F 55.3 °F 29.89 in North 5.0 mph 13.0 mph 52% 0.00 in
12:51 74.3 °F 55.0 °F 29.89 in North 7.0 mph 13.0 mph 51% 0.00 in
12:56 74.3 °F 53.4 °F 29.89 in NNE 6.0 mph 12.0 mph 48% 0.00 in
13:01 74.5 °F 55.2 °F 29.90 in NNW 4.0 mph 12.0 mph 51% 0.00 in
13:06 74.5 °F 55.2 °F 29.89 in NNW 8.0 mph 15.0 mph 51% 0.00 in
13:11 74.5 °F 54.7 °F 29.89 in NNW 5.0 mph 11.0 mph 50% 0.00 in
13:16 74.4 °F 54.0 °F 29.89 in NNE 5.0 mph 12.0 mph 49% 0.00 in
13:21 74.1 °F 56.4 °F 29.89 in NNW 4.0 mph 12.0 mph 54% 0.00 in
13:26 74.5 °F 55.7 °F 29.88 in North 7.0 mph 9.0 mph 52% 0.00 in
13:31 74.5 °F 56.3 °F 29.88 in NNE 9.0 mph 11.0 mph 53% 0.00 in
13:36 74.8 °F 58.6 °F 29.88 in North 9.0 mph 12.0 mph 57% 0.00 in
13:41 74.6 °F 55.3 °F 29.89 in NNW 5.0 mph 12.0 mph 51% 0.00 in
13:46 74.8 °F 55.5 °F 29.89 in NNW 12.0 mph 13.0 mph 51% 0.00 in
13:51 74.5 °F 54.7 °F 29.89 in NNE 3.0 mph 8.0 mph 50% 0.00 in
13:56 74.9 °F 55.0 °F 29.89 in NE 6.0 mph 9.0 mph 50% 0.00 in
14:01 75.2 °F 55.3 °F 29.89 in NE 7.0 mph 10.0 mph 50% 0.00 in
14:06 75.1 °F 55.2 °F 29.89 in North 9.0 mph 13.0 mph 50% 0.00 in
14:11 75.2 °F 56.4 °F 29.89 in North 8.0 mph 11.0 mph 52% 0.00 in
14:16 75.5 °F 55.0 °F 29.88 in NNW 8.0 mph 14.0 mph 49% 0.00 in
14:21 75.6 °F 56.2 °F 29.89 in NW 8.0 mph 10.0 mph 51% 0.00 in
14:26 75.6 °F 55.1 °F 29.89 in NW 6.0 mph 11.0 mph 49% 0.00 in
14:31 75.7 °F 57.4 °F 29.89 in NNW 7.0 mph 12.0 mph 53% 0.00 in
14:36 75.5 °F 55.6 °F 29.88 in North 4.0 mph 4.0 mph 50% 0.00 in
14:41 75.6 °F 55.7 °F 29.88 in NNW 10.0 mph 13.0 mph 50% 0.00 in
14:46 75.6 °F 57.3 °F 29.88 in NNW 5.0 mph 10.0 mph 53% 0.00 in
14:51 75.5 °F 55.0 °F 29.88 in ESE 2.0 mph 9.0 mph 49% 0.00 in
14:56 75.6 °F 55.1 °F 29.88 in NNE 8.0 mph 8.0 mph 49% 0.00 in
15:01 75.8 °F 58.0 °F 29.88 in ENE 1.0 mph 7.0 mph 54% 0.00 in
15:06 76.4 °F 58.0 °F 29.88 in ENE 2.0 mph 7.0 mph 53% 0.00 in
15:12 76.4 °F 54.1 °F 29.88 in East 5.0 mph 10.0 mph 46% 0.00 in
15:17 76.1 °F 54.4 °F 29.87 in East 2.0 mph 8.0 mph 47% 0.00 in
15:22 76.3 °F 56.9 °F 29.87 in NE 9.0 mph 9.0 mph 51% 0.00 in
15:27 75.7 °F 56.3 °F 29.88 in North 2.0 mph 9.0 mph 51% 0.00 in
15:32 75.7 °F 56.8 °F 29.88 in NNW 11.0 mph 15.0 mph 52% 0.00 in
15:37 75.7 °F 56.8 °F 29.88 in NNW 4.0 mph 9.0 mph 52% 0.00 in
15:42 76.1 °F 56.1 °F 29.88 in North 3.0 mph 9.0 mph 50% 0.00 in
15:47 75.6 °F 56.2 °F 29.88 in NW 4.0 mph 7.0 mph 51% 0.00 in
15:52 75.7 °F 55.2 °F 29.88 in North 2.0 mph 7.0 mph 49% 0.00 in
15:57 76.1 °F 58.3 °F 29.88 in NE 6.0 mph 9.0 mph 54% 0.00 in
16:02 76.2 °F 56.2 °F 29.88 in NNW 5.0 mph 8.0 mph 50% 0.00 in
16:07 75.8 °F 55.9 °F 29.88 in NE 3.0 mph 7.0 mph 50% 0.00 in
16:12 76.2 °F 57.3 °F 29.88 in NE 5.0 mph 6.0 mph 52% 0.00 in
16:17 76.0 °F 54.9 °F 29.88 in NE 5.0 mph 10.0 mph 48% 0.00 in
16:22 75.8 °F 56.9 °F 29.88 in NE 6.0 mph 8.0 mph 52% 0.00 in
16:27 74.9 °F 55.6 °F 29.88 in NE 3.0 mph 8.0 mph 51% 0.00 in
16:32 75.2 °F 55.8 °F 29.88 in NE 6.0 mph 9.0 mph 51% 0.00 in
16:37 75.7 °F 56.8 °F 29.88 in NNE 9.0 mph 10.0 mph 52% 0.00 in
16:42 75.9 °F 57.0 °F 29.88 in NE 4.0 mph 9.0 mph 52% 0.00 in
16:47 75.3 °F 56.5 °F 29.88 in North 2.0 mph 8.0 mph 52% 0.00 in
16:53 75.5 °F 56.7 °F 29.88 in NW 2.0 mph 6.0 mph 52% 0.00 in
16:58 75.9 °F 55.4 °F 29.88 in NE 3.0 mph 9.0 mph 49% 0.00 in
17:03 75.2 °F 55.3 °F 29.89 in NE 2.0 mph 5.0 mph 50% 0.00 in
17:08 75.3 °F 55.4 °F 29.88 in Calm   3.0 mph 50% 0.00 in
17:13 75.0 °F 55.1 °F 29.88 in NNE 6.0 mph 8.0 mph 50% 0.00 in
17:18 74.8 °F 56.0 °F 29.89 in North 2.0 mph 5.0 mph 52% 0.00 in
17:23 75.6 °F 55.7 °F 29.88 in ENE 4.0 mph 6.0 mph 50% 0.00 in
17:28 75.9 °F 56.5 °F 29.88 in NNE 4.0 mph 7.0 mph 51% 0.00 in
17:33 76.2 °F 57.3 °F 29.89 in NE 2.0 mph 8.0 mph 52% 0.00 in
17:38 76.4 °F 56.4 °F 29.88 in NNW 4.0 mph 9.0 mph 50% 0.00 in
17:43 76.4 °F 57.5 °F 29.89 in North 3.0 mph 7.0 mph 52% 0.00 in
17:48 76.4 °F 57.0 °F 29.89 in NNW 4.0 mph 7.0 mph 51% 0.00 in
17:53 76.3 °F 56.9 °F 29.88 in NE 6.0 mph 7.0 mph 51% 0.00 in
17:59 76.3 °F 55.8 °F 29.89 in NNE 4.0 mph 7.0 mph 49% 0.00 in
18:04 76.4 °F 56.4 °F 29.88 in North 7.0 mph 10.0 mph 50% 0.00 in
18:09 76.4 °F 55.8 °F 29.88 in ENE 4.0 mph 6.0 mph 49% 0.00 in
18:14 76.4 °F 57.5 °F 29.88 in NE 4.0 mph 7.0 mph 52% 0.00 in
18:19 76.4 °F 57.0 °F 29.88 in NNW 6.0 mph 8.0 mph 51% 0.00 in
18:24 76.2 °F 56.2 °F 29.89 in NNE 10.0 mph 10.0 mph 50% 0.00 in
18:29 76.2 °F 57.8 °F 29.88 in NNE 6.0 mph 9.0 mph 53% 0.00 in
18:34 76.0 °F 56.0 °F 29.88 in NNE 5.0 mph 11.0 mph 50% 0.00 in
18:40 76.2 °F 56.8 °F 29.89 in NE 5.0 mph 7.0 mph 51% 0.00 in
18:45 76.1 °F 56.1 °F 29.89 in NNW 4.0 mph 6.0 mph 50% 0.00 in
18:50 76.0 °F 56.0 °F 29.88 in North 4.0 mph 7.0 mph 50% 0.00 in
18:55 75.8 °F 56.4 °F 29.88 in NNE 4.0 mph 10.0 mph 51% 0.00 in
19:00 75.8 °F 56.4 °F 29.89 in NE 4.0 mph 7.0 mph 51% 0.00 in
19:05 75.5 °F 57.2 °F 29.89 in NNE 1.0 mph 7.0 mph 53% 0.00 in
19:10 75.6 °F 55.7 °F 29.89 in NNW 3.0 mph 7.0 mph 50% 0.00 in
19:15 75.6 °F 56.2 °F 29.89 in NNE 4.0 mph 7.0 mph 51% 0.00 in
19:20 75.7 °F 56.3 °F 29.89 in NW 3.0 mph 4.0 mph 51% 0.00 in
19:25 75.5 °F 57.2 °F 29.89 in North 3.0 mph 6.0 mph 53% 0.00 in
19:30 75.4 °F 56.0 °F 29.89 in North 5.0 mph 7.0 mph 51% 0.00 in
19:35 75.3 °F 57.0 °F 29.89 in NNW 3.0 mph 5.0 mph 53% 0.00 in
19:40 75.0 °F 55.1 °F 29.89 in NNW 4.0 mph 8.0 mph 50% 0.00 in
19:45 74.8 °F 55.5 °F 29.90 in NNE 4.0 mph 5.0 mph 51% 0.00 in
19:50 74.5 °F 56.8 °F 29.90 in NNE 4.0 mph 7.0 mph 54% 0.00 in
19:55 74.1 °F 56.4 °F 29.90 in NNW 3.0 mph 5.0 mph 54% 0.00 in
20:00 73.4 °F 56.3 °F 29.90 in NNE 2.0 mph 4.0 mph 55% 0.00 in
20:05 73.2 °F 56.6 °F 29.90 in North 4.0 mph 4.0 mph 56% 0.00 in
20:10 73.2 °F 57.1 °F 29.90 in NNE 3.0 mph 4.0 mph 57% 0.00 in
20:15 72.9 °F 56.8 °F 29.90 in North 3.0 mph 4.0 mph 57% 0.00 in
20:20 72.9 °F 57.3 °F 29.90 in NNE 1.0 mph 3.0 mph 58% 0.00 in
20:25 72.8 °F 57.2 °F 29.90 in North 1.0 mph 2.0 mph 58% 0.00 in
20:30 72.6 °F 57.5 °F 29.89 in North 1.0 mph 4.0 mph 59% 0.00 in
20:36 72.2 °F 57.1 °F 29.90 in Calm   2.0 mph 59% 0.00 in
20:41 71.8 °F 57.2 °F 29.89 in North 1.0 mph 3.0 mph 60% 0.00 in
20:46 71.2 °F 57.1 °F 29.89 in North 1.0 mph 2.0 mph 61% 0.00 in
20:51 70.6 °F 57.0 °F 29.89 in North 1.0 mph 2.0 mph 62% 0.00 in
20:56 70.0 °F 56.4 °F 29.89 in North 1.0 mph 1.0 mph 62% 0.00 in
21:01 69.4 °F 56.7 °F 29.90 in Calm   1.0 mph 64% 0.00 in
21:06 68.8 °F 56.6 °F 29.89 in North 1.0 mph 2.0 mph 65% 0.00 in
21:11 68.4 °F 56.2 °F 29.90 in NNW 2.0 mph 2.0 mph 65% 0.00 in
21:16 68.0 °F 56.2 °F 29.90 in North 1.0 mph 2.0 mph 66% 0.00 in
21:21 67.4 °F 56.5 °F 29.90 in North 2.0 mph 2.0 mph 68% 0.00 in
21:26 67.0 °F 56.5 °F 29.90 in North 2.0 mph 2.0 mph 69% 0.00 in
21:31 66.6 °F 56.5 °F 29.90 in NNE 2.0 mph 2.0 mph 70% 0.00 in
21:36 66.2 °F 56.1 °F 29.90 in NNW 2.0 mph 3.0 mph 70% 0.00 in
21:41 66.1 °F 56.0 °F 29.90 in NNW 2.0 mph 2.0 mph 70% 0.00 in
21:46 65.7 °F 56.0 °F 29.90 in NNW 1.0 mph 2.0 mph 71% 0.00 in
21:51 65.6 °F 56.3 °F 29.90 in NNW 1.0 mph 2.0 mph 72% 0.00 in
21:56 65.4 °F 56.5 °F 29.90 in NNW 1.0 mph 2.0 mph 73% 0.00 in
22:01 65.3 °F 56.0 °F 29.91 in NNW 1.0 mph 2.0 mph 72% 0.00 in
22:06 65.2 °F 56.0 °F 29.91 in Calm   1.0 mph 72% 0.00 in
22:11 65.0 °F 56.2 °F 29.91 in North 1.0 mph 2.0 mph 73% 0.00 in
22:16 64.8 °F 56.0 °F 29.91 in North 1.0 mph 2.0 mph 73% 0.00 in
22:21 64.6 °F 56.1 °F 29.92 in North 1.0 mph 1.0 mph 74% 0.00 in
22:26 64.5 °F 56.0 °F 29.92 in North 2.0 mph 3.0 mph 74% 0.00 in
22:31 64.4 °F 55.9 °F 29.92 in NNE 1.0 mph 2.0 mph 74% 0.00 in
22:36 64.3 °F 56.2 °F 29.92 in NNE 1.0 mph 3.0 mph 75% 0.00 in
22:41 64.2 °F 56.1 °F 29.92 in NNE 1.0 mph 2.0 mph 75% 0.00 in
22:46 64.0 °F 56.3 °F 29.93 in Calm   2.0 mph 76% 0.00 in
22:51 63.9 °F 56.2 °F 29.93 in NNE 1.0 mph 3.0 mph 76% 0.00 in
22:56 63.9 °F 56.2 °F 29.94 in Calm   1.0 mph 76% 0.00 in
23:01 63.9 °F 56.2 °F 29.94 in North 1.0 mph 2.0 mph 76% 0.00 in
23:06 63.8 °F 56.1 °F 29.94 in NNE 1.0 mph 2.0 mph 76% 0.00 in
23:11 63.8 °F 56.1 °F 29.94 in NNE 1.0 mph 3.0 mph 76% 0.00 in
23:16 63.6 °F 55.9 °F 29.94 in North 1.0 mph 1.0 mph 76% 0.00 in
23:22 63.5 °F 55.8 °F 29.95 in North 1.0 mph 2.0 mph 76% 0.00 in
23:27 63.4 °F 55.7 °F 29.95 in Calm   2.0 mph 76% 0.00 in
23:32 63.4 °F 55.7 °F 29.95 in NNW 2.0 mph 2.0 mph 76% 0.00 in
23:37 63.4 °F 55.7 °F 29.95 in NNE 1.0 mph 2.0 mph 76% 0.00 in
23:43 63.3 °F 55.6 °F 29.95 in North 2.0 mph 2.0 mph 76% 0.00 in
23:48 63.2 °F 55.9 °F 29.95 in NNE 3.0 mph 3.0 mph 77% 0.00 in
23:53 63.0 °F 55.7 °F 29.95 in North 3.0 mph 3.0 mph 77% 0.00 in
23:58 62.9 °F 55.6 °F 29.95 in North 2.0 mph 3.0 mph 77% 0.00 in
Compliments of Weather Underground